Location: Unspecified
(0.0000°N, 0.0000°E)
Time: 11:52:24
(UTC+00:00)

Vanguard 3 - Visible Passes

Search period start: 28 April 2015 00:00
Search period end: 08 May 2015 00:00
Orbit: 510 x 3270 km, 33.3° (Epoch: 27 April)

Date Brightness Start Highest point End Pass type
(mag) Time Alt. Az. Time Alt. Az. Time Alt. Az.
28 Apr 11.0 02:01:07 22° SSE 02:01:07 22° SSE 02:06:15 10° SE visible
28 Apr 10.9 04:05:47 17° SSW 04:09:34 18° SSW 04:19:06 10° SSE visible
28 Apr 10.3 19:53:19 10° N 20:00:03 20° NE 20:02:50 19° NE visible
28 Apr 10.2 22:02:34 10° NW 22:07:28 32° NNW 22:07:28 32° NNW visible
29 Apr 10.8 02:57:02 24° S 02:57:02 24° S 03:05:49 10° SSE visible
29 Apr 11.0 05:06:42 10° SSW 05:13:34 13° S 05:19:05 10° SSE visible
29 Apr 9.8 20:50:33 10° NNW 20:58:34 39° NNE 20:58:34 39° NNE visible
29 Apr 10.9 23:02:00 10° WNW 23:03:13 15° WNW 23:03:13 15° WNW visible
30 Apr 11.2 01:48:14 17° SSE 01:48:14 17° SSE 01:51:49 10° SSE visible
30 Apr 11.0 03:52:53 17° SSW 03:56:13 17° SSW 04:05:38 10° SSE visible
30 Apr 10.0 19:39:37 10° N 19:46:24 22° NE 19:49:43 21° ENE visible
30 Apr 10.0 21:49:01 10° NW 21:54:22 38° NW 21:54:22 38° NW visible
01 May 11.0 02:44:03 21° S 02:44:03 21° S 02:51:43 10° SSE visible
01 May 11.0 04:52:34 10° SSW 05:00:31 14° S 05:07:06 10° SSE visible
01 May 9.4 20:36:59 10° NNW 20:45:32 46° NNE 20:45:32 46° NNE visible
01 May 10.8 22:48:36 10° WNW 22:50:11 16° WNW 22:50:11 16° WNW visible
02 May 11.3 01:35:11 14° SSE 01:35:11 14° SSE 01:37:16 10° SSE visible
02 May 11.0 03:39:50 16° SSW 03:42:56 17° S 03:52:24 10° SSE visible
02 May 9.8 19:25:57 10° NNW 19:32:40 25° NE 19:36:45 22° ENE visible
02 May 9.7 21:35:34 10° NW 21:41:24 44° NW 21:41:24 44° NW visible
03 May 11.1 02:30:57 18° S 02:30:57 18° S 02:37:40 10° SSE visible
03 May 11.0 04:38:09 10° SSW 04:47:25 15° S 04:55:14 10° SSE visible
03 May 10.2 18:18:42 10° NE 18:19:07 10° NE 18:20:20 10° NE visible
03 May 9.1 20:23:28 10° NW 20:32:23 54° NE 20:32:39 54° NE visible
03 May 10.7 22:35:21 10° WNW 22:37:19 18° WNW 22:37:19 18° WNW visible
04 May 11.4 01:22:03 11° SSE 01:22:03 11° SSE 01:22:40 10° SSE visible
04 May 11.1 03:26:42 16° SSW 03:29:39 17° S 03:39:24 10° SSE visible
04 May 9.5 19:12:20 10° NNW 19:18:54 29° NE 19:23:56 22° ENE visible
04 May 9.4 21:22:13 10° WNW 21:28:36 52° WNW 21:28:36 52° WNW visible
05 May 11.2 02:17:48 17° S 02:17:48 17° S 02:23:42 10° SSE visible
05 May 11.0 04:23:30 10° SSW 04:34:14 17° S 04:43:20 10° SE visible
05 May 8.8 20:10:03 10° NW 20:18:23 63° NE 20:19:54 59° ENE visible
05 May 10.5 22:22:15 10° WNW 22:24:35 20° W 22:24:35 20° W visible
06 May 11.1 03:13:34 17° S 03:16:22 17° S 03:26:38 10° SE visible
06 May 10.7 05:25:20 10° SSW 05:37:54 24° SSE 05:47:19 10° ESE visible
06 May 9.2 18:58:46 10° NNW 19:05:06 33° NE 19:11:15 21° E visible
06 May 9.2 21:09:00 10° WNW 21:15:55 58° W 21:15:55 58° W visible
07 May 11.2 02:04:40 16° SSE 02:04:40 16° SSE 02:09:52 10° SSE visible
07 May 11.0 04:09:19 11° SSW 04:20:56 20° S 04:31:18 10° SE visible
07 May 8.5 19:56:42 10° NW 20:04:28 75° NE 20:07:17 56° ESE visible
07 May 10.4 22:09:19 10° W 22:11:57 20° W 22:11:57 20° W visible
